User: anonymous
Location: Clinton NY
(43.0598°N, 75.3602°W)
Time: 14:21:58
(UTC-04:00)
Language:

Iridium 42 - Orbit

View from above orbital plane
View from above orbital plane
View from above satellite
View from above satellite

Ground track
Ground track

The orbit data is extracted from the following two-line orbital elements,

1 25077U 97077A   14293.43930560  .00000379  00000-0  12831-3 0    22
2 25077 086.3969 067.7529 0002180 111.4176 248.7252 14.34249640883031
Epoch (UTC): 20 October 2014 10:32:36
Eccentricity: 0.0002180
inclination: 86.3969°
perigee height: 776 km
apogee height: 779 km
right ascension of ascending node: 67.7529°
argument of perigee: 111.4176°
revolutions per day: 14.34249640
mean anomaly at epoch: 248.7252°
orbit number at epoch: 88303

The dashed part of the orbit path shows where the satellite is in the earth's shadow,  

DLR